Content
SEND FEEDBACK

Daily
Averages
Monthly
Summary
United States of America

PUT IN BAY, OHIO


Home > North America > United States > Ohio
Elevation: 561 feet     Latitude: 41 39N     Longitude: 082 48W

WEATHER
 
SELECT A DAY
Number of Records: 124,886;   Date Range: 12/10/00 - 10/22/14
 
SHARE

PRINT THIS DATA

[ ← Previous Day ]
WEATHER ALMANAC - FEBRUARY 13, 2013
[ Next Day → ]
[ °C ]   °F
Weather ElementAverageHighLow
Temperature28.2 °F30.9 °F (11:00 pm)26 °F (7:00 am)
Dewpoint22.1 °F27 °F (10:00 pm)19.2 °F (5:00 am)
Humidity76.8 %92 % (9:00 pm)60 % (1:00 pm)
Barometer29.85 in29.94 in (1:00 am)29.78 in (3:00 pm)
Wind Speed4.6 mph8.1 mph (3:00 pm)
Weather ElementAverage
Wind DirectionSSW (210.4 °)

Weather ElementTotal
Precipitation---
Heating Degree Days36.6 (Base 65)
Averaged from 27 records on February 13, 2013
WEATHER CONDITIONS BREAKOUT
WIND DIRECTION BREAKOUT
WEATHER BY HOUR - FEBRUARY 13, 2013
[ °C ]   °F
Local TimeTemperatureDewpointHumidityBarometerVisibilityWind DirectionWind SpeedGust SpeedPrecipitationEventsConditions
1:00 AM28.0 °F21.0 °F65 %29.94 inWNW (290°)5.8 mph
1:00 AM28.4 °F20.8 °F73 %29.94 inWNW (290°)5.8 mph
2:00 AM27.1 °F20.1 °F75 %29.93 inNW (320°)3.5 mph
3:00 AM26.8 °F20.5 °F77 %29.92 inWNW (300°)3.5 mph
4:00 AM27.1 °F19.9 °F74 %29.91 inWNW (290°)4.6 mph
5:00 AM26.8 °F19.2 °F73 %29.90 inWest (280°)3.5 mph
6:00 AM26.6 °F19.8 °F75 %29.90 inNorth (350°)2.3 mph
7:00 AM26.0 °F20.0 °F68 %29.88 inNorth2.3 mph
7:00 AM26.4 °F19.6 °F75 %29.88 inNorth (360°)2.3 mph
8:00 AM26.4 °F19.4 °F75 %29.87 inNE (40°)3.5 mph
9:00 AM26.6 °F19.4 °F74 %29.86 inSSE (160°)2.3 mph
10:00 AM27.1 °F19.8 °F74 %29.84 inCalm
11:00 AM27.7 °F20.8 °F75 %29.87 inSW (220°)4.6 mph
12:00 PM28.4 °F20.5 °F72 %29.84 inSouth (190°)3.5 mph
1:00 PM30.0 °F22.0 °F60 %29.81 inWSW (240°)3.5 mph
1:00 PM29.8 °F21.6 °F71 %29.81 inWSW (240°)3.5 mph
2:00 PM29.3 °F22.5 °F76 %29.81 inSSW (210°)4.6 mph
3:00 PM29.5 °F23.0 °F77 %29.78 inSouth (190°)8.1 mph
4:00 PM30.6 °F23.9 °F76 %29.78 inSouth (190°)6.9 mph
5:00 PM29.8 °F23.9 °F79 %29.78 inSouth (180°)6.9 mph
6:00 PM28.6 °F24.1 °F83 %29.79 inSouth (190°)4.6 mph
7:00 PM28.0 °F25.0 °F83 %29.80 inSouth (170°)5.8 mph
7:00 PM27.5 °F24.8 °F90 %29.80 inSouth (170°)5.8 mph
8:00 PM27.9 °F25.3 °F90 %29.82 inSouth (180°)5.8 mph
9:00 PM28.9 °F26.8 °F92 %29.82 inSouth (190°)5.8 mph
10:00 PM30.2 °F27.0 °F88 %29.83 inSW (220°)8.1 mph
11:00 PM30.9 °F26.6 °F84 %29.83 inSW (220°)6.9 mph
Hourly data recorded from CXHA, located miles away from Put In Bay, Ohio







STORIES FROM OUR PARTNERS